Regional Weather Roundup
Issued by NWS

Home | Current Version | Previous Version | Text Only | Print | Product List | Glossary Off
Versions: 1 2 3 4 5 6 7 8 9 10 11 12 13 14 15 16 17 18 19 20 21 22 23 24 25 26 27 28 29 30 31 32 33 34 35 36 37 38 39 40 41 42 43 44 45 46 47 48 49 50

000
ASUS44 KMEG 151710
RWRTN
TENNESSEE HOURLY STATE WEATHER ROUNDUP
NATIONAL WEATHER SERVICE MEMPHIS TN
1200 PM CDT TUE APR 15 2014

TNZ002-004-019-021-049-052-054-088>092-151800-
WEST TENNESSEE

CITY           SKY/WX    TMP DP  RH WIND       PRES   REMARKS
MEMPHIS INTL   MOSUNNY   47  20  34 N14G25    30.23S
NWS MEMPHIS      N/A     46 N/A N/A MISG        N/A
JACKSON        MOSUNNY   45  25  45 N16G24    30.20F
DYERSBURG      SUNNY     43  19  39 N13G24    30.24S
UNION CITY     MOSUNNY   39  25  56 N15       30.20F WCI  31
PARIS          SUNNY     40  22  49 N16       30.19S WCI  31
LEXINGTON      MOSUNNY   43  21  42 N17       30.15F
$$

TNZ008-025-027-028-033-062-065-066-151800-
NORTH MIDDLE TENNESSEE

CITY           SKY/WX    TMP DP  RH WIND       PRES   REMARKS
NASHVILLE      PTSUNNY   43  28  55 N14G23    30.13R
DICKSON        MOSUNNY   39  23  52 NW17      30.13R WCI  30
PORTLAND       CLOUDY    37  28  70 N16       30.11  WCI  28
CLARKSVILLE    PTSUNNY   41  26  55 N22G28    30.17R
SMYRNA         CLOUDY    41  27  57 N21G28    30.14R
MURFREESBORO   CLOUDY    42  28  58 NW15      30.10R
LIVINGSTON     CLOUDY    34  32  92 N13       30.05  WCI  25
GALLATIN       CLOUDY    40  28  62 NW16      30.12R WCI  31
CROSSVILLE     LGT SNOW  38  31  76 N10       30.01R WCI  31
$$

TNZ061-075-076-078-094-096-097-151800-
SOUTH MIDDLE TENNESSEE

CITY           SKY/WX    TMP DP  RH WIND       PRES   REMARKS
LEWISBURG      PTSUNNY   42  29  60 NW15      30.10R
FAYETTEVILLE   PTSUNNY   36  32  85 N13       30.08R WCI  27
TULLAHOMA      CLOUDY    37  32  81 N13       30.07R WCI  29
WINCHESTER     CLOUDY    37  30  75 N16       30.07R WCI  28
MCMINNVILLE    CLOUDY    39  34  81 N16       30.07R WCI  30
COLUMBIA       PTSUNNY   43  30  61 NW12      30.11R
SHELBYVILLE    CLOUDY    39  32  75 N15       30.10R WCI  31
$$

TNZ017-018-042-046-047-151800-
NORTHEAST TENNESSEE

CITY           SKY/WX    TMP DP  RH WIND       PRES   REMARKS
TRI CITIES     RAIN      39  36  89 N9        29.92R FOG     WCI  33
ELIZABETHTON   DRIZZLE   39  36  87 NW10G18   29.89R WCI  32
$$

TNZ012-013-036-069-073-074-151800-
CENTRAL EAST TENNESSEE

CITY           SKY/WX    TMP DP  RH WIND       PRES   REMARKS
KNOXVILLE      LGT RAIN  37  33  85 N10       30.02R WCI  30
OAK RIDGE      CLOUDY    39  34  82 NE3       30.03S
$$

TNZ083-085-099-151800-
SOUTHEAST TENNESSEE

CITY           SKY/WX    TMP DP  RH WIND       PRES   REMARKS
CHATTANOOGA    LGT RAIN  44  35  70 N18G25    30.01R
$$

SKY/WX REPORTED AS FAIR MEANS FEW OR NO CLOUDS BELOW
12 THOUSAND FEET.




USA.gov is the U.S. government's official web portal to all federal, state and local government web resources and services.